SCP
0 0 0 0 0 0 0 0 0 0 0 0 0 0 0 0 0 0 0 0 0 0 0 0 0 0 0 0 0 0 0 0 0 0 0 0 0 0 0 0 0 0 0
0 0 0 0 0 0 0 0 0 0 0 0 0 0 0 0 0 0 0 0 0 0 0 0 0 0 0 0 0 0 0 0 0 0 0 0 0 0 0 0 0 0 0
0 0 0 0 0 0 0 0 0 0 0 0 0 0 0 0 0 0 0 0 0 0 0 0 0 0 0 0 0 0 0 0 0 0 0 0 0 0 0 0 0 0 0
0 0 0 0 0 0 0 0 0 0 0 0 0 0 0 0 0 0 0 0 0 0 0 0 0 0 0 0 0 0 0 0 0 0 0 0 0 0 0 0 0 0 0
0 0 0 0 0 0 0 0 0 0 0 0 0 0 0 0 0 0 0 0 0 0 0 0 0 0 0 0 0 0 0 0 0 0 0 0 0 0 0 0 0 0 0
0 0 0 0 0 0 0 0 0 0 0 0 0 0 0 0 0 0 0 0 0 0 0 0 0 0 0 0 0 0 0 0 0 0 0 0 0 0 0 0 0 0 0
0 0 0 0 0 0 0 0 0 0 0 0 0 0 0 0 0 0 0 0 0 0 0 0 0 0 0 0 0 0 0 0 0 0 0 0 0 0 0 0 0 0 0
0 0 0 0 0 0 0 0 0 0 0 0 0 0 0 0 0 0 0 0 0 0 0 0 0 0 0 0 0 0 0 0 0 0 0 0 0 0 0 0 0 0 0
0 0 0 0 0 0 0 0 0 0 0 0 0 0 0 0 0 0 0 0 0 0 0 0 0 0 0 0 0 0 0 0 0 0 0 0 0 0 0 0 0 0 0
0 0 0 0 0 0 0 0 0 0 0 0 0 0 0 0 0 0 0 0 0 0 0 0 0 0 0 0 0 0 0 0 0 0 0 0 0 0 0 0 0 0 0
0 0 0 0 0 0 0 0 0 0 0 0 0 0 0 0 0 0 0 0 0 0 0 0 0 0 0 0 0 0 0 0 0 0 0 0 0 0 0 0 0 0 0
0 0 0 0 0 0 0 0 0 0 0 0 0 0 0 0 0 0 0 0 0 0 0 0 0 0 0 0 0 0 0 0 0 0 0 0 0 0 0 0 0 0 0
0 0 0 0 0 0 0 0 0 0 0 0 0 0 0 0 0 0 0 0 0 0 0 0 0 0 0 0 0 0 0 0 0 0 0 0 0 0 0 0 0 0 0
0 0 0 0 0 0 0 0 0 0 0 0 0 0 0 0 0 0 0 0 0 0 0 0 0 0 0 0 0 0 0 0 0 0 0 0 0 0 0 0 0 0 0
0 0 0 0 0 0 0 0 0 0 0 0 0 0 0 0 0 0 0 0 0 0 0 0 0 0 0 0 0 0 0 0 0 0 0 0 0 0 0 0 0 0 0
0 0 0 0 0 0 0 0 0 0 0 0 0 0 0 0 0 0 0 0 0 0 0 0 0 0 0 0 0 0 0 0 0 0 0 0 0 0 0 0 0 0 0
0 0 0 0 0 0 0 0 0 0 0 0 0 0 0 0 0 0 0 0 0 0 0 0 0 0 0 0 0 0 0 0 0 0 0 0 0 0 0 0 0 0 0
0 0 0 0 0 0 0 0 0 0 0 0 0 0 0 0 0 0 0 0 0 0 0 0 0 0 0 0 0 0 0 0 0 0 0 0 0 0 0 0 0 0 0
0 0 0 0 0 0 0 0 0 0 0 0 0 0 0 0 0 0 0 0 0 0 0 0 0 0 0 0 0 0 0 0 0 0 0 0 0 0 0 0 0 0 0
0 0 0 0 0 0 0 0 0 0 0 0 0 0 0 0 0 0 0 0 0 0 0 0 0 0 0 0 0 0 0 0 0 0 0 0 0 0 0 0 0 0 0
0 0 0 0 0 0 0 0 0 0 0 0 0 0 0 0 0 0 0 0 0 0 0 0 0 0 0 0 0 0 0 0 0 0 0 0 0 0 0 0 0 0 0
0 0 0 0 0 0 0 0 0 0 0 0 0 0 0 0 0 0 0 0 0 0 0 0 0 0 0 0 0 0 0 0 0 0 0 0 0 0 0 0 0 0 0
0 0 0 0 0 0 0 0 0 0 0 0 0 0 0 0 0 0 0 0 0 0 0 0 0 0 0 0 0 0 0 0 0 0 0 0 0 0 0 0 0 0 0
0 0 0 0 0 0 0 0 0 0 0 0 0 0 0 0 0 0 0 0 0 0 0 0 0 0 0 0 0 0 0 0 0 0 0 0 0 0 0 0 0 0 0
0 0 0 0 0 0 0 0 0 0 0 0 0 0 0 0 0 0 0 0 0 0 0 0 0 0 0 0 0 0 0 0 0 0 0 0 0 0 0 0 0 0 0
0 0 0 0 0 0 0 0 0 0 0 0 0 0 0 0 0 0 0 0 0 0 0 0 0 0 0 0 0 0 0 0 0 0 0 0 0 0 0 0 0 0 0
Wind_Speed_500mb
58 59 59 58 60 64 69 73 75 74 75 79 77 71 64 57 55 59 59 58 63 63 63 64 66 64 68 67 66 67 70 73 83 83 81 71 69 62 59 48 45 48 57
43 52 57 54 50 51 55 57 58 61 61 66 65 65 61 58 57 59 58 58 57 59 59 60 64 61 64 63 64 67 68 68 76 71 72 70 65 61 51 45 43 46 53
31 35 41 45 45 45 46 47 49 53 54 58 56 59 58 57 55 55 54 55 59 59 59 61 58 60 63 65 67 69 65 58 61 57 62 58 56 54 47 44 44 43 50
21 20 23 27 33 39 41 44 47 49 52 55 56 57 58 56 55 56 58 59 58 56 56 61 60 59 64 65 56 49 51 53 52 48 49 55 54 50 46 47 46 48 54
13 13 14 18 24 30 37 43 47 49 51 53 54 56 57 60 61 62 61 58 56 56 64 58 62 60 53 50 50 52 47 44 48 49 52 54 52 50 49 44 47 49 53
29 27 27 27 29 32 35 37 39 41 44 47 50 53 55 57 60 59 58 55 47 58 63 59 50 46 50 47 43 46 45 44 47 48 48 48 45 42 42 43 48 52 52
44 37 36 37 36 38 40 41 42 42 43 46 49 51 54 54 53 50 51 52 52 50 43 45 52 53 52 51 48 47 49 47 46 41 40 38 37 28 31 37 44 49 49
57 48 46 45 41 41 42 42 43 42 41 40 40 40 43 45 47 44 41 41 43 45 50 50 50 47 43 43 44 44 41 39 39 36 28 25 27 26 28 26 32 38 41
65 57 52 48 41 41 42 41 41 40 37 35 33 31 29 28 30 32 35 37 41 44 45 41 37 35 36 30 25 26 29 28 26 25 25 21 23 24 22 22 28 32 36
67 60 53 47 41 42 42 40 38 36 33 30 28 28 28 29 27 24 23 23 24 23 20 20 22 27 24 21 20 22 18 18 18 17 16 17 10 12 13 15 21 27 35
64 58 52 47 42 43 41 37 34 32 32 31 31 31 31 27 25 23 19 18 19 21 21 19 16 14 14 15 19 15 14 15 16 15 14 14 13 17 19 21 28 35 38
56 52 49 44 41 39 35 32 30 31 32 31 29 26 24 24 21 21 20 16 14 13 14 12 9 6 8 9 12 13 13 16 15 13 12 12 15 20 25 28 30 36 41
49 46 43 41 39 35 32 33 33 32 28 25 24 24 24 20 18 16 14 14 15 14 14 15 13 13 14 14 12 13 14 13 13 13 15 17 20 21 24 26 28 29 32
42 40 39 37 37 36 34 33 31 30 29 26 24 23 23 21 18 17 17 17 17 17 17 17 19 20 18 13 11 13 14 14 12 12 14 16 19 22 25 28 31 31 34
38 37 39 40 40 39 35 33 32 32 28 25 26 26 24 23 22 22 20 18 17 18 18 17 16 14 13 13 14 12 7 5 6 11 15 19 22 24 25 27 28 28 33
38 41 41 41 42 41 41 40 35 31 30 28 27 25 24 22 22 23 22 21 17 16 12 14 13 12 11 10 7 4 6 9 11 14 17 19 21 24 25 26 27 30 32
39 41 39 39 39 39 39 34 33 33 32 31 28 23 18 18 17 16 15 12 12 12 12 11 8 7 6 4 4 5 8 10 13 17 19 22 24 24 25 26 29 33 36
35 38 40 39 35 32 29 29 28 27 25 23 22 22 22 19 19 19 11 6 5 6 6 4 1 3 5 6 7 9 12 15 17 20 21 23 25 27 30 32 35 39 42
30 32 34 34 32 28 26 25 22 24 24 22 19 17 15 15 12 8 8 9 5 3 4 5 8 10 12 13 15 17 20 23 26 28 29 31 33 35 37 39 42 45 48
30 32 32 32 30 25 24 23 25 24 22 18 14 11 9 6 4 3 5 8 9 11 13 16 18 21 23 25 27 29 32 34 35 37 38 39 40 41 43 44 47 48 49
34 34 31 30 29 26 22 21 21 18 14 10 5 2 2 5 9 11 14 16 19 22 25 27 29 31 33 35 37 38 40 41 41 42 43 43 44 45 45 47 48 48 47
34 34 32 29 27 22 17 17 15 12 9 6 8 12 16 17 19 20 23 25 28 31 33 35 37 39 40 41 43 44 46 46 46 46 45 45 46 47 47 49 48 47 47
26 24 20 16 13 8 5 6 8 10 12 15 18 23 26 27 28 29 31 33 35 38 40 42 44 44 45 46 47 48 48 48 48 49 48 49 49 48 49 50 48 47 45
16 14 11 8 8 10 12 14 16 18 20 23 27 31 34 36 39 41 42 44 46 47 48 50 50 50 50 49 50 51 51 50 51 49 50 51 51 50 50 50 48 47 44
23 22 21 20 21 22 23 25 28 30 33 36 38 40 41 43 45 46 48 50 52 53 53 55 56 56 56 56 56 56 56 55 54 51 52 53 53 52 51 51 49 47 45
32 31 30 29 28 29 30 31 32 34 36 39 42 44 46 48 49 51 53 55 57 57 57 59 59 59 59 60 58 58 59 58 56 53 55 56 55 53 52 51 49 48 45
Wind_Direction_500mb
251 257 259 258 256 252 252 253 255 257 254 255 257 260 262 261 260 257 257 258 258 259 262 266 268 270 269 271 272 272 273 275 274 276 285 289 289 291 290 286 273 263 250
257 253 255 256 254 249 249 251 252 254 256 258 259 258 255 254 255 256 257 259 259 262 264 266 269 269 269 270 270 272 273 277 275 278 284 285 283 289 281 275 269 257 247
265 255 250 249 249 248 247 247 246 250 250 253 253 254 251 250 250 252 254 256 257 260 263 265 267 272 269 270 269 274 275 271 274 273 274 276 281 280 275 270 263 258 247
266 258 254 250 248 247 245 242 241 241 243 243 242 242 244 246 247 248 250 252 256 257 262 258 264 276 270 270 272 273 269 273 270 267 273 273 272 268 265 259 254 251 240
263 258 256 258 258 258 256 252 248 245 243 244 243 243 244 246 248 248 250 253 255 257 261 262 263 266 271 272 267 273 265 264 267 268 267 267 263 263 267 263 256 252 244
261 263 266 266 266 265 263 260 257 253 248 246 244 244 247 248 249 250 250 246 251 251 257 254 267 264 267 270 258 264 263 263 264 263 261 262 264 269 267 264 253 245 237
262 265 272 274 273 270 267 263 258 254 250 248 247 247 245 246 243 245 249 253 253 253 250 253 258 261 261 262 262 261 259 252 253 252 255 265 265 262 263 261 255 249 244
260 261 267 271 270 269 263 258 254 249 245 241 239 238 238 240 244 246 246 246 244 245 247 251 256 256 256 258 260 258 254 252 253 257 265 260 252 250 254 250 257 250 243
254 258 262 263 261 263 260 254 249 244 241 238 234 231 228 228 231 238 241 243 244 245 249 249 252 258 260 263 266 259 253 255 256 259 261 260 263 259 245 232 231 232 240
251 255 259 260 260 259 254 250 244 236 229 223 222 224 227 227 228 228 229 233 233 234 236 245 257 261 259 256 258 256 251 246 241 244 252 258 252 240 239 225 237 260 270
245 249 252 253 252 250 246 239 233 222 207 202 205 212 217 217 216 212 210 226 222 224 234 240 255 254 247 245 229 221 223 234 231 238 243 245 236 244 243 245 256 266 267
245 243 243 242 241 239 230 220 205 208 208 204 201 201 200 198 194 196 198 205 207 216 219 224 237 238 213 207 204 206 218 211 213 221 231 243 257 263 272 272 266 260 256
241 239 236 232 228 222 209 206 197 195 202 194 188 191 204 200 196 198 199 201 209 214 220 228 227 235 242 223 211 207 218 226 234 239 244 255 260 262 264 266 266 265 260
237 232 226 219 210 200 199 202 201 200 201 203 206 206 203 197 197 198 199 206 209 211 212 215 224 221 210 215 213 214 220 222 231 249 265 281 287 285 282 280 277 272 266
225 220 211 203 198 198 197 200 202 204 203 209 204 204 205 201 194 193 194 200 206 208 210 213 217 216 224 227 227 231 250 281 286 283 292 295 297 292 288 283 277 271 266
215 206 202 200 196 195 196 193 192 199 191 190 189 188 197 199 197 204 211 211 203 193 204 207 210 212 214 210 218 259 304 320 315 314 311 308 304 299 294 288 280 272 269
207 203 196 196 194 193 190 189 181 178 180 177 172 168 170 170 160 154 159 163 172 167 182 191 192 203 228 258 297 314 317 316 314 309 304 299 294 293 294 294 291 289 282
195 188 181 180 177 175 172 167 160 151 152 151 156 157 154 153 153 155 169 154 122 103 126 127 166 254 269 281 291 299 301 296 291 287 284 284 284 286 286 287 285 284 284
177 173 173 171 170 173 172 161 149 137 135 135 135 127 119 121 123 135 174 202 228 261 278 277 281 285 287 286 283 279 275 273 272 273 274 274 276 277 279 280 280 280 280
139 137 140 141 139 141 143 138 130 129 126 121 113 118 125 129 143 204 236 248 263 271 274 274 275 275 276 277 277 276 275 273 273 273 275 276 278 278 278 277 276 277 279
111 114 115 118 122 126 127 122 115 114 115 113 102 67 272 269 265 266 269 271 270 270 270 270 272 273 274 275 275 276 276 276 277 277 278 278 278 277 276 275 276 276 277
91 93 95 95 94 95 94 88 84 75 57 17 334 313 300 291 281 274 271 270 271 271 271 272 272 273 274 275 276 276 276 277 278 279 280 279 278 278 277 276 275 275 276
78 80 82 79 70 54 16 348 332 326 319 310 297 290 285 281 281 282 281 279 277 277 276 276 276 275 276 275 275 275 277 277 277 279 279 278 277 275 274 273 273 273 274
50 50 41 23 354 334 322 316 310 299 292 287 283 284 287 288 287 284 282 281 280 279 279 279 278 279 279 279 279 279 279 279 279 280 279 277 276 275 273 272 273 272 272
19 15 7 357 348 338 330 325 320 316 312 308 304 298 293 291 290 289 289 288 287 286 286 286 286 285 285 284 283 282 281 280 279 277 276 275 274 273 272 272 271 270 268
355 351 345 339 331 323 317 312 306 302 299 297 297 297 296 295 294 293 292 291 289 288 287 286 285 285 283 282 281 279 277 277 276 273 271 269 269 269 269 268 266 266 265
Wind_Speed_850mb
58 59 59 58 60 64 69 73 75 74 75 79 77 71 64 57 55 59 59 58 63 63 63 64 66 64 68 67 66 67 70 73 83 83 81 71 69 62 59 48 45 48 57
43 52 57 54 50 51 55 57 58 61 61 66 65 65 61 58 57 59 58 58 57 59 59 60 64 61 64 63 64 67 68 68 76 71 72 70 65 61 51 45 43 46 53
31 35 41 45 45 45 46 47 49 53 54 58 56 59 58 57 55 55 54 55 59 59 59 61 58 60 63 65 67 69 65 58 61 57 62 58 56 54 47 44 44 43 50
21 20 23 27 33 39 41 44 47 49 52 55 56 57 58 56 55 56 58 59 58 56 56 61 60 59 64 65 56 49 51 53 52 48 49 55 54 50 46 47 46 48 54
13 13 14 18 24 30 37 43 47 49 51 53 54 56 57 60 61 62 61 58 56 56 64 58 62 60 53 50 50 52 47 44 48 49 52 54 52 50 49 44 47 49 53
29 27 27 27 29 32 35 37 39 41 44 47 50 53 55 57 60 59 58 55 47 58 63 59 50 46 50 47 43 46 45 44 47 48 48 48 45 42 42 43 48 52 52
44 37 36 37 36 38 40 41 42 42 43 46 49 51 54 54 53 50 51 52 52 50 43 45 52 53 52 51 48 47 49 47 46 41 40 38 37 28 31 37 44 49 49
57 48 46 45 41 41 42 42 43 42 41 40 40 40 43 45 47 44 41 41 43 45 50 50 50 47 43 43 44 44 41 39 39 36 28 25 27 26 28 26 32 38 41
65 57 52 48 41 41 42 41 41 40 37 35 33 31 29 28 30 32 35 37 41 44 45 41 37 35 36 30 25 26 29 28 26 25 25 21 23 24 22 22 28 32 36
67 60 53 47 41 42 42 40 38 36 33 30 28 28 28 29 27 24 23 23 24 23 20 20 22 27 24 21 20 22 18 18 18 17 16 17 10 12 13 15 21 27 35
64 58 52 47 42 43 41 37 34 32 32 31 31 31 31 27 25 23 19 18 19 21 21 19 16 14 14 15 19 15 14 15 16 15 14 14 13 17 19 21 28 35 38
56 52 49 44 41 39 35 32 30 31 32 31 29 26 24 24 21 21 20 16 14 13 14 12 9 6 8 9 12 13 13 16 15 13 12 12 15 20 25 28 30 36 41
49 46 43 41 39 35 32 33 33 32 28 25 24 24 24 20 18 16 14 14 15 14 14 15 13 13 14 14 12 13 14 13 13 13 15 17 20 21 24 26 28 29 32
42 40 39 37 37 36 34 33 31 30 29 26 24 23 23 21 18 17 17 17 17 17 17 17 19 20 18 13 11 13 14 14 12 12 14 16 19 22 25 28 31 31 34
38 37 39 40 40 39 35 33 32 32 28 25 26 26 24 23 22 22 20 18 17 18 18 17 16 14 13 13 14 12 7 5 6 11 15 19 22 24 25 27 28 28 33
38 41 41 41 42 41 41 40 35 31 30 28 27 25 24 22 22 23 22 21 17 16 12 14 13 12 11 10 7 4 6 9 11 14 17 19 21 24 25 26 27 30 32
39 41 39 39 39 39 39 34 33 33 32 31 28 23 18 18 17 16 15 12 12 12 12 11 8 7 6 4 4 5 8 10 13 17 19 22 24 24 25 26 29 33 36
35 38 40 39 35 32 29 29 28 27 25 23 22 22 22 19 19 19 11 6 5 6 6 4 1 3 5 6 7 9 12 15 17 20 21 23 25 27 30 32 35 39 42
30 32 34 34 32 28 26 25 22 24 24 22 19 17 15 15 12 8 8 9 5 3 4 5 8 10 12 13 15 17 20 23 26 28 29 31 33 35 37 39 42 45 48
30 32 32 32 30 25 24 23 25 24 22 18 14 11 9 6 4 3 5 8 9 11 13 16 18 21 23 25 27 29 32 34 35 37 38 39 40 41 43 44 47 48 49
34 34 31 30 29 26 22 21 21 18 14 10 5 2 2 5 9 11 14 16 19 22 25 27 29 31 33 35 37 38 40 41 41 42 43 43 44 45 45 47 48 48 47
34 34 32 29 27 22 17 17 15 12 9 6 8 12 16 17 19 20 23 25 28 31 33 35 37 39 40 41 43 44 46 46 46 46 45 45 46 47 47 49 48 47 47
26 24 20 16 13 8 5 6 8 10 12 15 18 23 26 27 28 29 31 33 35 38 40 42 44 44 45 46 47 48 48 48 48 49 48 49 49 48 49 50 48 47 45
16 14 11 8 8 10 12 14 16 18 20 23 27 31 34 36 39 41 42 44 46 47 48 50 50 50 50 49 50 51 51 50 51 49 50 51 51 50 50 50 48 47 44
23 22 21 20 21 22 23 25 28 30 33 36 38 40 41 43 45 46 48 50 52 53 53 55 56 56 56 56 56 56 56 55 54 51 52 53 53 52 51 51 49 47 45
32 31 30 29 28 29 30 31 32 34 36 39 42 44 46 48 49 51 53 55 57 57 57 59 59 59 59 60 58 58 59 58 56 53 55 56 55 53 52 51 49 48 45
Wind_Direction_850mb
251 257 259 258 256 252 252 253 255 257 254 255 257 260 262 261 260 257 257 258 258 259 262 266 268 270 269 271 272 272 273 275 274 276 285 289 289 291 290 286 273 263 250
257 253 255 256 254 249 249 251 252 254 256 258 259 258 255 254 255 256 257 259 259 262 264 266 269 269 269 270 270 272 273 277 275 278 284 285 283 289 281 275 269 257 247
265 255 250 249 249 248 247 247 246 250 250 253 253 254 251 250 250 252 254 256 257 260 263 265 267 272 269 270 269 274 275 271 274 273 274 276 281 280 275 270 263 258 247
266 258 254 250 248 247 245 242 241 241 243 243 242 242 244 246 247 248 250 252 256 257 262 258 264 276 270 270 272 273 269 273 270 267 273 273 272 268 265 259 254 251 240
263 258 256 258 258 258 256 252 248 245 243 244 243 243 244 246 248 248 250 253 255 257 261 262 263 266 271 272 267 273 265 264 267 268 267 267 263 263 267 263 256 252 244
261 263 266 266 266 265 263 260 257 253 248 246 244 244 247 248 249 250 250 246 251 251 257 254 267 264 267 270 258 264 263 263 264 263 261 262 264 269 267 264 253 245 237
262 265 272 274 273 270 267 263 258 254 250 248 247 247 245 246 243 245 249 253 253 253 250 253 258 261 261 262 262 261 259 252 253 252 255 265 265 262 263 261 255 249 244
260 261 267 271 270 269 263 258 254 249 245 241 239 238 238 240 244 246 246 246 244 245 247 251 256 256 256 258 260 258 254 252 253 257 265 260 252 250 254 250 257 250 243
254 258 262 263 261 263 260 254 249 244 241 238 234 231 228 228 231 238 241 243 244 245 249 249 252 258 260 263 266 259 253 255 256 259 261 260 263 259 245 232 231 232 240
251 255 259 260 260 259 254 250 244 236 229 223 222 224 227 227 228 228 229 233 233 234 236 245 257 261 259 256 258 256 251 246 241 244 252 258 252 240 239 225 237 260 270
245 249 252 253 252 250 246 239 233 222 207 202 205 212 217 217 216 212 210 226 222 224 234 240 255 254 247 245 229 221 223 234 231 238 243 245 236 244 243 245 256 266 267
245 243 243 242 241 239 230 220 205 208 208 204 201 201 200 198 194 196 198 205 207 216 219 224 237 238 213 207 204 206 218 211 213 221 231 243 257 263 272 272 266 260 256
241 239 236 232 228 222 209 206 197 195 202 194 188 191 204 200 196 198 199 201 209 214 220 228 227 235 242 223 211 207 218 226 234 239 244 255 260 262 264 266 266 265 260
237 232 226 219 210 200 199 202 201 200 201 203 206 206 203 197 197 198 199 206 209 211 212 215 224 221 210 215 213 214 220 222 231 249 265 281 287 285 282 280 277 272 266
225 220 211 203 198 198 197 200 202 204 203 209 204 204 205 201 194 193 194 200 206 208 210 213 217 216 224 227 227 231 250 281 286 283 292 295 297 292 288 283 277 271 266
215 206 202 200 196 195 196 193 192 199 191 190 189 188 197 199 197 204 211 211 203 193 204 207 210 212 214 210 218 259 304 320 315 314 311 308 304 299 294 288 280 272 269
207 203 196 196 194 193 190 189 181 178 180 177 172 168 170 170 160 154 159 163 172 167 182 191 192 203 228 258 297 314 317 316 314 309 304 299 294 293 294 294 291 289 282
195 188 181 180 177 175 172 167 160 151 152 151 156 157 154 153 153 155 169 154 122 103 126 127 166 254 269 281 291 299 301 296 291 287 284 284 284 286 286 287 285 284 284
177 173 173 171 170 173 172 161 149 137 135 135 135 127 119 121 123 135 174 202 228 261 278 277 281 285 287 286 283 279 275 273 272 273 274 274 276 277 279 280 280 280 280
139 137 140 141 139 141 143 138 130 129 126 121 113 118 125 129 143 204 236 248 263 271 274 274 275 275 276 277 277 276 275 273 273 273 275 276 278 278 278 277 276 277 279
111 114 115 118 122 126 127 122 115 114 115 113 102 67 272 269 265 266 269 271 270 270 270 270 272 273 274 275 275 276 276 276 277 277 278 278 278 277 276 275 276 276 277
91 93 95 95 94 95 94 88 84 75 57 17 334 313 300 291 281 274 271 270 271 271 271 272 272 273 274 275 276 276 276 277 278 279 280 279 278 278 277 276 275 275 276
78 80 82 79 70 54 16 348 332 326 319 310 297 290 285 281 281 282 281 279 277 277 276 276 276 275 276 275 275 275 277 277 277 279 279 278 277 275 274 273 273 273 274
50 50 41 23 354 334 322 316 310 299 292 287 283 284 287 288 287 284 282 281 280 279 279 279 278 279 279 279 279 279 279 279 279 280 279 277 276 275 273 272 273 272 272
19 15 7 357 348 338 330 325 320 316 312 308 304 298 293 291 290 289 289 288 287 286 286 286 286 285 285 284 283 282 281 280 279 277 276 275 274 273 272 272 271 270 268
355 351 345 339 331 323 317 312 306 302 299 297 297 297 296 295 294 293 292 291 289 288 287 286 285 285 283 282 281 279 277 277 276 273 271 269 269 269 269 268 266 266 265